Location: ????????
(55.6333°N, 37.7000°E)
Time: 01:48:21
(UTC+00:00)

Cosmos 2208 Rocket - Pass Details

Date: 19 May 2025
Orbit: 752 x 801 km, 74.0° (Epoch: 14 June)

Event Time Altitude Azimuth Distance (km) Brightness Sun altitude
Exits shadow 19:14:44 - 193° (SSW) 3,110 6.7 -9.5°
Reaches altitude 10° 19:16:42 10° 191° (S) 2,356 6.1 -9.6°
Maximum altitude 19:21:58 62° 112° (ESE) 887 4.1 -10.0°
Drops below altitude 10° 19:27:13 10° 33° (NNE) 2,341 6.9 -10.3°
Sets 19:29:37 0° 30° (NNE) 3,265 7.7 -10.5°
